CW9561 Weather Reports


time (UTC)temp
C
wind
direction
speed
KPH
gust
KPH
rain 1hr
cm
rain 24hr
cm
rain mn
cm
humidity
%
barometer
mb
20260905203027 25 187 3.2 0.0 0.00 0.00 0.00 28 1026.8
20260905201024 25 187 1.6 0.0 0.00 0.00 0.00 29 1026.9
20260905200025 25 121 0.0 0.0 0.00 0.00 0.00 30 1027.0
20260905195026 25 213 1.6 0.0 0.00 0.00 0.00 31 1027.3
20260905194022 24 278 1.6 0.0 0.00 0.00 0.00 30 1027.4
20260905193023 23 292 1.6 0.0 0.00 0.00 0.00 32 1027.7
20260905192038 22 167 0.0 0.0 0.00 0.00 0.00 32 1027.9
20260905191034 22 181 1.6 0.0 0.00 0.00 0.00 34 1027.9
20260905190019 23 77 1.6 0.0 0.00 0.00 0.00 35 1027.8
20260905185022 22 121 1.6 0.0 0.00 0.00 0.00 35 1027.9
20260905184040 22 87 3.2 0.0 0.00 0.00 0.00 39 1028.1
20260905183018 21 111 1.6 0.0 0.00 0.00 0.00 41 1028.1
20260905182024 21 95 4.8 0.0 0.00 0.00 0.00 41 1028.2
20260905181021 20 121 6.4 0.0 0.00 0.00 0.00 42 1028.3
20260905180022 21 92 1.6 0.0 0.00 0.00 0.00 41 1028.3
20260905175038 22 192 1.6 0.0 0.00 0.00 0.00 40 1028.4
20260905174034 21 150 3.2 0.0 0.00 0.00 0.00 41 1028.5
20260905172020 19 92 1.6 0.0 0.00 0.00 0.00 47 1028.7
20260905171038 18 69 3.2 0.0 0.00 0.00 0.00 49 1028.9
20260905170037 18 76 1.6 0.0 0.00 0.00 0.00 49 1029.2
20260905164040 18 92 1.6 0.0 0.00 0.00 0.00 49 1029.0
20260905163017 17 90 1.6 0.0 0.00 0.00 0.00 50 1029.0
20260905162038 16 331 0.0 0.0 0.00 0.00 0.00 52 1028.9
20260905161034 16 68 0.0 0.0 0.00 0.00 0.00 52 1029.0
20260905160036 15 68 0.0 0.0 0.00 0.00 0.00 54 1029.1
20260905155035 16 78 0.0 0.0 0.00 0.00 0.00 51 1029.0
20260905154032 16 341 0.0 0.0 0.00 0.00 0.00 53 1029.0
20260905153031 16 72 0.0 0.0 0.00 0.00 0.00 54 1028.4
20260905152030 15 86 0.0 0.0 0.00 0.00 0.00 55 1028.6
20260905151029 14 86 0.0 0.0 0.00 0.00 0.00 56 1028.6
20260905150026 15 86 0.0 0.0 0.00 0.00 0.00 54 1028.6
20260905145026 15 86 1.6 0.0 0.00 0.00 0.00 56 1028.7
20260905143031 15 280 0.0 0.0 0.00 0.00 0.00 56 1028.8
20260905142027 13 280 0.0 0.0 0.00 0.00 0.00 58 1028.9
20260905141025 13 281 0.0 0.0 0.00 0.00 0.00 58 1028.9
20260905135020 12 281 0.0 0.0 0.00 0.00 0.00 61 1028.9
20260905134023 10 280 0.0 0.0 0.00 0.00 0.00 68 1029.1
20260905131022 8 280 0.0 0.0 0.00 0.00 0.00 71 1027.9
20260905130021 7 280 0.0 0.0 0.00 0.00 0.00 72 1027.9
20260905125022 7 280 0.0 0.0 0.00 0.00 0.00 73 1027.9
20260905124021 7 280 3.2 0.0 0.00 0.00 0.00 73 1027.9
20260905121038 7 280 3.2 0.0 0.00 0.00 0.00 70 1028.2
20260905120039 8 280 0.0 0.0 0.00 0.00 0.00 69 1028.1
20260905115036 8 280 0.0 0.0 0.00 0.00 0.00 68 1028.1
20260905113038 9 280 0.0 0.0 0.00 0.00 0.00 63 1028.3
20260905112018 9 280 0.0 0.0 0.00 0.00 0.00 64 1028.1
20260905105035 8 280 0.0 0.0 0.00 0.00 0.00 67 1027.1
20260905104036 8 280 0.0 0.0 0.00 0.00 0.00 67 1027.1
20260905103031 9 280 0.0 0.0 0.00 0.00 0.00 65 1027.2
20260905102031 10 280 0.0 0.0 0.00 0.00 0.00 64 1027.1
20260905095035 11 280 0.0 0.0 0.00 0.00 0.00 58 1026.8
20260905094036 12 280 0.0 0.0 0.00 0.00 0.00 57 1026.7
20260905093032 11 280 0.0 0.0 0.00 0.00 0.00 59 1026.5
20260905092032 10 280 0.0 0.0 0.00 0.00 0.00 61 1026.5
20260905091028 9 280 0.0 0.0 0.00 0.00 0.00 64 1026.6
20260905090029 9 280 3.2 0.0 0.00 0.00 0.00 65 1026.6
20260905085030 9 280 0.0 0.0 0.00 0.00 0.00 65 1026.6
20260905084028 10 280 0.0 0.0 0.00 0.00 0.00 64 1026.6
20260905083025 10 280 0.0 0.0 0.00 0.00 0.00 64 1026.6
20260905081024 10 280 0.0 0.0 0.00 0.00 0.00 62 1026.3
20260905080020 10 280 0.0 0.0 0.00 0.00 0.00 61 1026.2
20260905075024 11 280 1.6 0.0 0.00 0.00 0.00 61 1026.2
20260905074020 11 280 0.0 0.0 0.00 0.00 0.00 59 1026.2
20260905073039 12 280 0.0 0.0 0.00 0.00 0.00 56 1026.3
20260905072020 12 280 0.0 0.0 0.00 0.00 0.00 55 1026.3
20260905071037 12 280 0.0 0.0 0.00 0.00 0.00 54 1026.1
20260905070033 13 280 0.0 0.0 0.00 0.00 0.00 53 1025.9
20260905063022 13 280 0.0 0.0 0.00 0.00 0.00 52 1026.0
20260905062037 13 280 0.0 0.0 0.00 0.00 0.00 53 1026.0
20260905061036 13 280 0.0 0.0 0.00 0.00 0.00 53 1026.1
20260905060033 13 280 0.0 0.0 0.00 0.00 0.00 53 1026.1
20260905055036 13 280 0.0 0.0 0.00 0.00 0.00 52 1026.0
20260905054033 13 280 0.0 0.0 0.00 0.00 0.00 52 1025.8
20260905053029 13 280 0.0 0.0 0.00 0.00 0.00 53 1025.8
20260905052026 13 280 0.0 0.0 0.00 0.00 0.00 53 1026.0
20260905051026 13 280 0.0 0.0 0.00 0.00 0.00 54 1026.1
20260905050027 12 280 0.0 0.0 0.00 0.00 0.00 55 1026.0
20260905045023 12 280 0.0 0.0 0.00 0.00 0.00 57 1026.1
20260905044039 11 280 0.0 0.0 0.00 0.00 0.00 59 1026.2
20260905043035 11 280 0.0 0.0 0.00 0.00 0.00 60 1026.1
20260905041035 12 280 0.0 0.0 0.00 0.00 0.00 57 1026.1
20260905040034 13 280 0.0 0.0 0.00 0.00 0.00 55 1026.1
20260905035028 13 280 1.6 0.0 0.00 0.00 0.00 54 1026.1
20260905034026 13 280 3.2 0.0 0.00 0.00 0.00 54 1026.1
20260905032025 13 280 1.6 0.0 0.00 0.00 0.00 54 1025.9
20260905030022 15 280 0.0 0.0 0.00 0.00 0.00 51 1025.9
20260905024023 15 280 0.0 0.0 0.00 0.00 0.00 49 1025.7
20260905023041 15 280 0.0 0.0 0.00 0.00 0.00 48 1025.6
20260905022037 16 280 0.0 0.0 0.00 0.00 0.00 47 1025.4
20260905021034 16 280 0.0 0.0 0.00 0.00 0.00 45 1025.0
20260905020034 16 280 0.0 0.0 0.00 0.00 0.00 45 1024.9
20260905014036 18 280 0.0 0.0 0.00 0.00 0.00 40 1024.7
20260905011026 20 280 0.0 0.0 0.00 0.00 0.00 37 1024.4
20260905010027 20 211 0.0 0.0 0.00 0.00 0.00 37 1024.4
20260905005022 20 252 0.0 0.0 0.00 0.00 0.00 36 1024.3
20260905004022 21 250 0.0 0.0 0.00 0.00 0.00 35 1024.3
20260905003039 21 203 1.6 0.0 0.00 0.00 0.00 35 1024.3
20260905002036 21 194 1.6 0.0 0.00 0.00 0.00 33 1024.2
20260905001035 21 219 1.6 0.0 0.00 0.00 0.00 33 1024.3
20260904235032 22 227 1.6 0.0 0.00 0.00 0.00 32 1024.3
20260904234034 22 190 1.6 0.0 0.00 0.00 0.00 32 1024.3
20260904232038 23 225 0.0 0.0 0.00 0.00 0.00 31 1024.4
20260904231034 23 187 1.6 0.0 0.00 0.00 0.00 30 1024.5
20260904225028 23 130 1.6 0.0 0.00 0.00 0.00 32 1024.4
20260904223033 24 132 1.6 0.0 0.00 0.00 0.00 30 1024.5
20260904222030 25 259 0.0 0.0 0.00 0.00 0.00 31 1024.4
20260904221030 24 207 1.6 0.0 0.00 0.00 0.00 30 1024.5
20260904215026 24 218 1.6 0.0 0.00 0.00 0.00 30 1024.7
20260904214027 24 213 3.2 0.0 0.00 0.00 0.00 30 1024.8
20260904213027 24 126 0.0 0.0 0.00 0.00 0.00 31 1024.8
20260904212026 23 186 1.6 0.0 0.00 0.00 0.00 31 1024.7
20260904211022 23 266 3.2 0.0 0.00 0.00 0.00 35 1024.8
20260904210023 23 272 3.2 0.0 0.00 0.00 0.00 35 1024.9
20260904205039 24 142 1.6 0.0 0.00 0.00 0.00 33 1024.8